User: anonymous   Login
Location: Kott?ru
(16.6209°N, 80.6208°E)
Time: 11:48:48
(UTC+00:00)
Language:

Meteor 1-31 Rocket - Orbit

View from above orbital plane
View from above orbital plane
View from above satellite
View from above satellite

Ground track
Ground track

The orbit data is extracted from the following two-line orbital elements,

1 12586U 81065B   21135.96193193  .00000407  00000-0  28247-4 0  9993
2 12586  97.6554 124.0328 0018144 343.1707  16.8918 15.11037761168025
Epoch (UTC): 15 May 2021 23:05:10
Eccentricity: 0.0018144
inclination: 97.6554°
perigee height: 520 km
apogee height: 545 km
right ascension of ascending node: 124.0328°
argument of perigee: 343.1707°
revolutions per day: 15.11037761
mean anomaly at epoch: 16.8918°
orbit number at epoch: 16802

The dashed part of the orbit path shows where the satellite is in the earth's shadow,  

DLR